Location: *
(51.0333°S, 178.4667°E)
Time: 11:12:35
(UTC+00:00)

Cosmos 1461 - Pass Details

Date: 15 November 2019
Orbit: 522 x 645 km, 65.0° (Epoch: 10 December)

Event Time Altitude Azimuth Distance (km) Brightness Sun altitude
Rises 11:37:20 0° 224° (SW) 2,943 7.3 -20.4°
Reaches altitude 10° 11:39:43 10° 228° (SW) 2,012 6.3 -20.4°
Maximum altitude 11:44:07 52° 303° (WNW) 765 3.3 -20.5°
Enters shadow 11:44:32 50° 325° (NW) 782 3.2 -20.5°
